Guymon, OK

4:04 PM CST on February 23, 2017 (GMT -0600)
Guymon Municipal

Weather History for KGUY - August, 2012

Change the Weather History Date:

Monday, August 20, 2012

  Actual Average Record
Temperature  
Mean Temperature 74 °F 78 °F  
Max Temperature 90 °F 91 °F 105 °F (2007)
Min Temperature 58 °F 65 °F 55 °F (2004)
Degree Days  
Heating Degree Days 0 0  
Month to date heating degree days 0 0  
Since 1 June heating degree days 0 8  
Since 1 July heating degree days 0 0  
Cooling Degree Days 9 13  
Month to date cooling degree days 301 274  
Year to date cooling degree days 1577 1116  
Since 1 June cooling degree days 1312 1008  
Growing Degree Days 24 (Base 50)    
Moisture  
Dew Point 46 °F    
Average Humidity 49    
Maximum Humidity 73    
Minimum Humidity 25    
Precipitation  
Precipitation T in 0.11 in 0.91 in (2006)
Month to date precipitation 0.24 1.84  
Year to date precipitation 8.76 13.69  
Snow  
Snow 0.00 in - - ()
Month to date snowfall 0.0  
Since 1 June snowfall 0.0  
Since 1 July snowfall 0.0  
Snow Depth 0.00 in    
Sea Level Pressure  
Sea Level Pressure 29.93 in    
Wind  
Wind Speed 10 mph (SSE)    
Max Wind Speed 21 mph    
Max Gust Speed 29 mph    
Visibility 10 miles    
Events Rain    
T = Trace of Precipitation, MM = Missing Value Source: NWS Daily Summary

Daily Weather History Graph

Daily Weather History Graph

Search for Another Location

Airport or City:

Trip Planner

Search our weather history database for the weather conditions in past years. The results will help you decide how hot, cold, wet, or windy it might be!

Date:

Astronomy

Aug. 20, 2012 Rise Set
Actual Time 7:07 AM CDT 8:30 PM CDT
Civil Twilight 6:40 AM CDT 8:57 PM CDT
Nautical Twilight 6:08 AM CDT 9:29 PM CDT
Astronomical Twilight 5:34 AM CDT 10:03 PM CDT
Moon 10:24 AM CDT (8/20) 10:02 PM CDT (8/20)
Length of Visible Light 14h 16m
Length of Day
13h 22m
Waxing Crescent, 11% of the Moon is Illuminated
Aug 20
Waxing Crescent
Aug 24
First Quarter
Aug 31
Full
Sep 8
Last Quarter
Sep 15
New

Hourly Weather History & Observations

Time (CDT) Temp. Dew Point Humidity Pressure Visibility Wind Dir Wind Speed Gust Speed Precip Events Conditions
12:53 AM 64.9 °F 39.0 °F 39% 30.01 in 10.0 mi ESE 9.2 mph - N/A   Partly Cloudy
1:53 AM 63.0 °F 39.0 °F 41% 30.02 in 10.0 mi SE 3.5 mph - N/A   Mostly Cloudy
2:53 AM 64.0 °F 39.0 °F 40% 30.01 in 10.0 mi SSE 6.9 mph - N/A   Mostly Cloudy
3:53 AM 64.0 °F 39.0 °F 40% 30.02 in 10.0 mi ESE 3.5 mph - N/A   Mostly Cloudy
4:53 AM 64.0 °F 39.9 °F 41% 29.99 in 10.0 mi SSE 4.6 mph - N/A   Mostly Cloudy
5:53 AM 62.1 °F 42.1 °F 48% 30.00 in 10.0 mi South 5.8 mph - N/A   Partly Cloudy
6:53 AM 59.0 °F 43.0 °F 55% 30.01 in 10.0 mi South 3.5 mph - N/A   Partly Cloudy
7:53 AM 62.1 °F 44.1 °F 52% 30.00 in 10.0 mi South 8.1 mph - 0.00 in   Partly Cloudy
8:53 AM 66.0 °F 43.0 °F 43% 29.99 in 10.0 mi South 9.2 mph - N/A   Scattered Clouds
9:53 AM 72.0 °F 43.0 °F 35% 29.98 in 10.0 mi South 11.5 mph - N/A   Overcast
10:53 AM 79.0 °F 41.0 °F 26% 29.96 in 10.0 mi South 15.0 mph 20.7 mph N/A   Clear
11:53 AM 81.0 °F 41.0 °F 24% 29.94 in 10.0 mi SE 15.0 mph 21.9 mph N/A   Scattered Clouds
12:53 PM 82.9 °F 44.1 °F 25% 29.91 in 10.0 mi SSE 15.0 mph 25.3 mph N/A   Scattered Clouds
1:53 PM 84.9 °F 45.0 °F 25% 29.88 in 10.0 mi SSE 19.6 mph 26.5 mph N/A   Mostly Cloudy
2:53 PM 87.1 °F 48.9 °F 27% 29.84 in 10.0 mi SSE 11.5 mph 20.7 mph N/A   Clear
3:53 PM 88.0 °F 48.9 °F 26% 29.82 in 10.0 mi South 11.5 mph 23.0 mph N/A   Clear
4:53 PM 87.1 °F 50.0 °F 28% 29.81 in 10.0 mi South 13.8 mph - N/A   Clear
5:53 PM 87.1 °F 50.0 °F 28% 29.81 in 10.0 mi SSE 10.4 mph - N/A   Scattered Clouds
6:53 PM 84.0 °F 48.0 °F 28% 29.79 in 10.0 mi SE 15.0 mph 24.2 mph N/A   Clear
7:53 PM 82.0 °F 48.9 °F 31% 29.82 in 10.0 mi SE 10.4 mph - 0.00 in Rain Light Rain
8:53 PM 78.1 °F 53.1 °F 42% 29.86 in 10.0 mi SE 5.8 mph - 0.00 in   Overcast
9:53 PM 72.0 °F 59.0 °F 64% 29.91 in 10.0 mi SSE 5.8 mph - N/A   Mostly Cloudy
10:53 PM 72.0 °F 57.0 °F 59% 29.91 in 10.0 mi South 9.2 mph - N/A   Mostly Cloudy
11:53 PM 68.0 °F 59.0 °F 73% 29.94 in 10.0 mi SE 12.7 mph - 0.00 in   Mostly Cloudy